Weather History for London, United Kingdom

Change the Weather History Date:

Tuesday, February 19, 2013

  Actual Average Record
Temperature  
Mean Temperature 41 °F -  
Max Temperature 52 °F 49 °F 55 °F (1998)
Min Temperature 30 °F 37 °F 28 °F (2003)
Degree Days  
Heating Degree Days 24    
Moisture  
Dew Point 32 °F    
Average Humidity 75    
Maximum Humidity 94    
Minimum Humidity 41    
Precipitation  
Precipitation 0.00 in - - ()
Sea Level Pressure  
Sea Level Pressure 30.10 in    
Wind  
Wind Speed 3 mph ()    
Max Wind Speed 6 mph    
Max Gust Speed -    
Visibility 3.8 miles    
Events      
Averages and records for this station are not official NWS values.
T = Trace of Precipitation, MM = Missing Value Source: Averaged Metar Reports

Daily Weather History Graph

Daily Weather History Graph

Search for Another Location

Airport:

Trip Planner

Search our weather history database for the weather conditions in past years. The results will help you decide how hot, cold, wet, or windy it might be!

Date:

Astronomy

Feb. 19, 2013 Rise Set
Actual Time 7:07 AM GMT 5:24 PM GMT
Civil Twilight 6:33 AM GMT 5:58 PM GMT
Nautical Twilight 5:54 AM GMT 6:37 PM GMT
Astronomical Twilight 5:16 AM GMT 7:16 PM GMT
Moon 11:22 AM GMT (2/19) 2:48 AM GMT (2/19)
Length of Visible Light 11h 25m
Length of Day
10h 16m
Waxing Gibbous, 65% of the Moon is Illuminated
Feb 19
Waxing Gibbous
Feb 25
Full
Mar 4
Last Quarter
Mar 11
New
Mar 19
First Quarter

Hourly Weather History & Observations

Time (GMT) Temp. Windchill Dew Point Humidity Pressure Visibility Wind Dir Wind Speed Gust Speed Precip Events Conditions
12:20 AM 33.8 °F 30.8 °F 32.0 °F 93% 30.15 in 4.3 mi East 3.5 mph - N/A   Unknown
12:50 AM 33.8 °F - 32.0 °F 93% 30.12 in 3.7 mi ENE 2.3 mph - N/A   Unknown
1:20 AM 33.8 °F - 32.0 °F 93% 30.12 in - ENE 2.3 mph - N/A   Haze
1:50 AM 32.0 °F 28.7 °F 30.2 °F 93% 30.12 in 3.1 mi North 3.5 mph - N/A   Unknown
2:20 AM 32.0 °F 28.7 °F 30.2 °F 93% 30.12 in 3.1 mi North 3.5 mph - N/A   Unknown
2:50 AM 31 °F - 29 °F 90% 30.14 in 3 mi NNW 1.2 mph - -   Mist
2:50 AM 32.0 °F - 30.2 °F 93% 30.12 in 3.1 mi Calm Calm - N/A   Mist
3:20 AM 32.0 °F - 30.2 °F 93% 30.12 in - Calm Calm - N/A   Mist
3:50 AM 30.2 °F - 28.4 °F 93% 30.12 in 1.9 mi Variable 2.3 mph - N/A   Mist
4:20 AM 30.2 °F - 28.4 °F 93% 30.12 in 1.9 mi ENE 2.3 mph - N/A   Mist
4:50 AM 30.2 °F 26.7 °F 28.4 °F 93% 30.12 in 1.7 mi East 3.5 mph - N/A   Mist
5:20 AM 30.2 °F - 28.4 °F 93% 30.12 in 1.7 mi Variable 2.3 mph - N/A   Mist
5:50 AM 30 °F - 29 °F 94% 30.12 in 3 mi North 2.3 mph - -   Mist
5:50 AM 30.2 °F - 28.4 °F 93% 30.12 in 1.9 mi North 2.3 mph - N/A   Mist
6:20 AM 32.0 °F - 30.2 °F 93% 30.12 in 2.5 mi Variable 2.3 mph - N/A   Mist
6:50 AM 30.2 °F - 28.4 °F 93% 30.12 in - Variable 2.3 mph - N/A   Mist
7:20 AM 30.2 °F - 28.4 °F 93% 30.12 in 2.2 mi North 2.3 mph - N/A   Mist
7:50 AM 32.0 °F - 30.2 °F 93% 30.12 in 2.2 mi Calm Calm - N/A   Mist
8:20 AM 33.8 °F 30.8 °F 32.0 °F 93% 30.12 in - North 3.5 mph - N/A   Mist
8:50 AM 33 °F - 31 °F 91% 30.13 in 4 mi NW 1.2 mph - -   Light Haze
8:50 AM 33.8 °F - 32.0 °F 93% 30.12 in - North 2.3 mph - N/A   Mist
9:20 AM 37.4 °F - 33.8 °F 87% 30.12 in 3.1 mi Variable 2.3 mph - N/A   Haze
9:50 AM 39.2 °F - 33.8 °F 81% 30.12 in 3.1 mi Variable 2.3 mph - N/A   Haze
10:20 AM 41.0 °F 39.0 °F 33.8 °F 76% 30.12 in 3.1 mi Variable 3.5 mph - N/A   Haze
10:50 AM 42.8 °F 40.1 °F 35.6 °F 76% 30.12 in 3.7 mi West 4.6 mph - N/A   Unknown
11:20 AM 44.6 °F 42.2 °F 35.6 °F 71% 30.12 in 5.0 mi Variable 4.6 mph - N/A   Unknown
11:50 AM 46 °F - 37 °F 60% 30.12 in 7 mi SW 3.5 mph - -  
11:50 AM 46.4 °F 43.5 °F 37.4 °F 71% 30.12 in 5.6 mi WSW 5.8 mph - N/A   Unknown
12:20 PM 46.4 °F 44.3 °F 35.6 °F 66% 30.09 in - West 4.6 mph - N/A   Clear
12:50 PM 46.4 °F 44.3 °F 33.8 °F 62% 30.09 in - WNW 4.6 mph - N/A   Clear
1:20 PM 48.2 °F - 33.8 °F 58% 30.09 in - Variable 3.5 mph - N/A   Clear
1:50 PM 50.0 °F - 33.8 °F 54% 30.06 in - South 4.6 mph - N/A   Clear
2:20 PM 48.2 °F - 33.8 °F 58% 30.06 in - Variable 3.5 mph - N/A   Clear
2:50 PM 51 °F - 35 °F 41% 30.06 in 7 mi SW 2.3 mph - -  
2:50 PM 50.0 °F - 33.8 °F 54% 30.06 in - Variable 3.5 mph - N/A   Clear
3:20 PM 50.0 °F - 33.8 °F 54% 30.06 in - Variable 2.3 mph - N/A   Clear
3:50 PM 50.0 °F - 33.8 °F 54% 30.06 in - West 4.6 mph - N/A   Clear
4:20 PM 50.0 °F - 30.2 °F 47% 30.06 in - Variable 3.5 mph - N/A   Clear
4:50 PM 50.0 °F - 30.2 °F 47% 30.06 in - Calm Calm - N/A   Clear
5:20 PM 48.2 °F - 30.2 °F 50% 30.06 in - Variable 2.3 mph - N/A   Clear
5:50 PM 46 °F - 31 °F 44% 30.08 in 9 mi WNW 2.3 mph - -  
5:50 PM 48.2 °F - 30.2 °F 50% 30.06 in - WNW 2.3 mph - N/A   Clear
6:20 PM 48.2 °F - 30.2 °F 50% 30.06 in - North 3.5 mph - N/A   Clear
6:50 PM 46.4 °F 45.2 °F 33.8 °F 62% 30.09 in - North 3.5 mph - N/A   Clear
7:20 PM 46.4 °F 45.2 °F 33.8 °F 62% 30.09 in - North 3.5 mph - N/A   Clear
7:50 PM 46.4 °F - 33.8 °F 62% 30.09 in - Variable 2.3 mph - N/A   Clear
8:20 PM 44.6 °F - 33.8 °F 66% 30.09 in - NE 2.3 mph - N/A   Clear
8:50 PM 40 °F - 35 °F 74% 30.10 in 5 mi NNE 2.3 mph - -   Light Haze
8:50 PM 44.6 °F - 33.8 °F 66% 30.09 in - Variable 2.3 mph - N/A   Clear
9:20 PM 42.8 °F 41.1 °F 33.8 °F 70% 30.09 in - NE 3.5 mph - N/A   Clear
9:50 PM 42.8 °F 41.1 °F 33.8 °F 70% 30.09 in 5.6 mi Variable 3.5 mph - N/A   Unknown
10:20 PM 41.0 °F 38.0 °F 33.8 °F 76% 30.09 in 5.0 mi NE 4.6 mph - N/A   Unknown
10:50 PM 41.0 °F 39.0 °F 33.8 °F 76% 30.09 in 4.3 mi Variable 3.5 mph - N/A   Unknown
11:20 PM 39.2 °F 35.0 °F 33.8 °F 81% 30.09 in 4.3 mi NE 5.8 mph - N/A   Unknown